Date String (YYYY-MM-DD hh:mm:ss) UTC,Instrument flags,absolute air pressure of the measurement (hPa),sample flow rate (lpm),inlet stack bypass flow (lpm),air temperature of the measurement (°C),ambient temperature measured by the external sensor (°C),aerosol sample conditioner tube jacket temperature (°C),OPC LED temperature (°C),internal box temperature (°C),relative humidity of the measurement (%),span deviation,mass concentration of particles derived from Lorenz-Mie calculation of OPC scattering (μg/m³),mass concentration of particles derived from Lorenz-Mie calculation of OPC scattering (μg/m³),mass concentration of particles derived from Lorenz-Mie calculation of OPC scattering (μg/m³)
DateTimeUTC,F1_M11,P_M11,Q1_M11,Q2_M11,T1_M11,T2_M11,T3_M11,T4_M11,T5_M11,U1_M11,ZSPAN_M11,X0_M11,X2_M11,X1_M11
2023-09-06 10:00:00,SystemResetWarning,0834.6,4.99,000.00,028.9,027.5,000.0,037.2,030.4,24.0,0002.2,0029.33,0021.15,0020.12
2023-09-06 10:01:00,SystemResetWarning,0834.9,4.99,000.00,028.9,027.6,000.0,037.2,030.4,24.0,0002.1,0028.86,0020.94,0019.92
2023-09-06 10:02:00,SystemResetWarning,0834.8,5.00,000.00,028.9,027.6,000.0,037.2,030.4,23.9,0002.0,0028.74,0020.72,0019.70
2023-09-06 10:03:00,SystemResetWarning,0834.6,5.01,000.00,028.9,027.5,000.0,037.2,030.4,23.9,0001.9,0028.94,0020.51,0019.51
2023-09-06 10:04:00,SystemResetWarning,0834.7,5.01,000.00,028.9,027.5,000.0,037.2,030.5,23.9,0001.9,0028.55,0020.43,0019.40
2023-09-06 10:05:00,SystemResetWarning,0835.1,5.00,000.00,028.9,027.5,000.0,037.2,030.5,23.9,0002.0,0028.57,0020.40,0019.36
2023-09-06 10:06:00,SystemResetWarning,0834.6,5.00,000.00,028.9,027.5,000.0,037.2,030.5,23.8,0001.9,0028.44,0020.31,0019.28
2023-09-06 10:07:00,SystemResetWarning,0834.5,4.99,000.00,028.9,027.5,000.0,037.2,030.5,23.8,0001.9,0028.21,0020.23,0019.21
2023-09-06 10:08:00,SystemResetWarning,0834.5,5.00,000.00,028.9,027.5,000.0,037.2,030.5,23.8,0001.9,0028.14,0020.14,0019.14
2023-09-06 10:09:00,SystemResetWarning,0834.8,5.00,000.00,028.9,027.5,000.0,037.2,030.5,23.7,0002.0,0028.35,0020.12,0019.15
2023-09-06 10:10:00,SystemResetWarning,0835.1,4.99,000.00,028.9,027.6,000.0,037.2,030.5,23.7,0001.9,0028.31,0020.07,0019.11
2023-09-06 10:11:00,SystemResetWarning,0835.0,5.00,000.00,029.0,027.5,000.0,037.3,030.5,23.7,0001.9,0028.48,0020.08,0019.13
2023-09-06 10:12:00,SystemResetWarning,0834.5,5.01,000.00,029.0,027.5,000.0,037.3,030.5,23.7,0001.9,0029.34,0020.11,0019.17
2023-09-06 10:13:00,SystemResetWarning,0834.5,5.01,000.00,029.0,027.5,000.0,037.3,030.6,23.7,0002.1,0029.52,0020.06,0019.13
2023-09-06 10:14:00,SystemResetWarning,0834.4,5.00,000.00,029.0,027.5,000.0,037.3,030.6,23.7,0002.2,0030.39,0020.01,0019.09
2023-09-06 10:15:00,SystemResetWarning,0834.4,4.98,000.00,029.0,027.5,000.0,037.3,030.5,23.7,0002.1,0030.99,0019.96,0019.08
2023-09-06 10:16:00,SystemResetWarning,0834.4,5.00,000.00,029.0,027.6,000.0,037.3,030.6,23.7,0002.1,0031.23,0019.93,0019.06
2023-09-06 10:17:00,SystemResetWarning,0834.4,5.01,000.00,029.0,027.6,000.0,037.3,030.5,23.7,0002.1,0031.27,0019.93,0019.04
2023-09-06 10:18:00,SystemResetWarning,0834.5,5.01,000.00,029.0,027.6,000.0,037.3,030.5,23.7,0002.1,0031.11,0019.91,0019.02
2023-09-06 10:19:00,SystemResetWarning,0834.5,4.99,000.00,029.0,027.6,000.0,037.3,030.5,23.7,0002.1,0030.97,0019.86,0018.98
2023-09-06 10:20:00,SystemResetWarning,0834.4,4.99,000.00,029.0,027.6,000.0,037.3,030.6,23.7,0002.1,0030.82,0019.73,0018.83
2023-09-06 10:21:00,SystemResetWarning,0834.3,4.99,000.00,029.0,027.6,000.0,037.3,030.6,23.6,0002.3,0030.72,0019.57,0018.68
2023-09-06 10:22:00,SystemResetWarning,0834.4,5.01,000.00,029.0,027.6,000.0,037.3,030.6,23.6,0002.3,0031.07,0019.38,0018.53
2023-09-06 10:23:00,SystemResetWarning,0834.4,5.01,000.00,029.0,027.6,000.0,037.3,030.6,23.6,0002.2,0030.11,0019.25,0018.41
2023-09-06 10:24:00,SystemResetWarning,0834.5,5.00,000.00,029.0,027.7,000.0,037.3,030.7,23.6,0002.0,0029.87,0019.24,0018.36
2023-09-06 10:25:00,SystemResetWarning,0834.5,5.00,000.00,029.0,027.7,000.0,037.3,030.7,23.6,0002.1,0028.59,0019.28,0018.32
2023-09-06 10:26:00,SystemResetWarning,0834.4,4.99,000.00,029.1,027.7,000.0,037.4,030.7,23.6,0002.1,0027.29,0019.26,0018.29
2023-09-06 10:27:00,SystemResetWarning,0834.3,4.99,000.00,029.1,027.7,000.0,037.4,030.7,23.6,0002.1,0027.09,0019.24,0018.26
2023-09-06 10:28:00,SystemResetWarning,0834.4,4.99,000.00,029.1,027.7,000.0,037.4,030.7,23.6,0002.1,0027.41,0019.22,0018.25
2023-09-06 10:29:00,SystemResetWarning,0834.4,5.00,000.00,029.1,027.7,000.0,037.4,030.7,23.5,0002.2,0027.34,0019.17,0018.22
2023-09-06 10:30:00,SystemResetWarning,0834.4,5.01,000.00,029.1,027.8,000.0,037.4,030.7,23.5,0002.1,0027.31,0019.16,0018.21
2023-09-06 10:31:00,SystemResetWarning,0834.3,4.99,000.00,029.1,026.7,000.0,037.3,030.4,23.5,0002.1,0027.17,0019.16,0018.21
2023-09-06 10:32:00,SystemResetWarning,0834.4,5.00,000.00,028.9,024.9,000.0,037.3,029.9,23.6,0001.9,0027.43,0019.16,0018.22
2023-09-06 10:33:00,SystemResetWarning,0834.3,5.01,000.00,028.8,024.4,000.0,037.2,029.6,23.8,0001.9,0027.55,0019.32,0018.30
2023-09-06 10:34:00,SystemResetWarning,0834.2,5.01,000.00,028.6,024.6,000.0,037.1,029.5,24.0,0002.1,0027.92,0019.41,0018.36
2023-09-06 10:35:00,SystemResetWarning,0834.2,5.00,000.00,028.5,024.9,000.0,037.1,029.6,24.2,0002.2,0029.44,0019.51,0018.43
2023-09-06 10:36:00,SystemResetWarning,0834.3,5.00,000.00,028.5,025.3,000.0,037.1,029.7,24.2,0002.2,0029.74,0019.51,0018.47
2023-09-06 10:37:00,SystemResetWarning,0834.4,5.01,000.00,028.5,025.6,000.0,037.0,029.8,24.3,0002.0,0029.70,0019.48,0018.45
2023-09-06 10:38:00,SystemResetWarning,0834.3,4.99,000.00,028.5,025.9,000.0,037.0,029.8,24.3,0002.0,0029.89,0019.43,0018.40
2023-09-06 10:39:00,SystemResetWarning,0834.3,4.99,000.00,028.4,026.1,000.0,037.0,029.8,24.4,0002.0,0029.96,0019.39,0018.36
2023-09-06 10:40:00,SystemResetWarning,0834.5,5.00,000.00,028.4,026.3,000.0,037.0,029.9,24.4,0001.8,0030.39,0019.35,0018.32
2023-09-06 10:41:00,SystemResetWarning,0834.4,5.01,000.00,028.4,026.5,000.0,036.9,029.9,24.3,0001.8,0030.70,0019.31,0018.26
2023-09-06 10:42:00,SystemResetWarning,0834.2,5.01,000.00,028.5,026.6,000.0,036.9,030.0,24.3,0001.7,0030.62,0019.29,0018.22
2023-09-06 10:43:00,SystemResetWarning,0834.2,5.01,000.00,028.5,026.7,000.0,036.9,030.0,24.3,0001.8,0030.71,0019.28,0018.21
2023-09-06 10:44:00,SystemResetWarning,0834.2,5.00,000.00,028.5,026.8,000.0,036.9,030.0,24.3,0001.8,0030.53,0019.20,0018.14
2023-09-06 10:45:00,SystemResetWarning,0834.2,4.99,000.00,028.5,026.9,000.0,036.9,030.0,24.3,0001.8,0030.04,0019.02,0018.00
2023-09-06 10:46:00,SystemResetWarning,0834.2,4.99,000.00,028.5,027.0,000.0,036.9,030.1,24.2,0002.0,0029.12,0018.86,0017.88
2023-09-06 10:47:00,SystemResetWarning,0834.2,5.00,000.00,028.5,027.0,000.0,036.9,030.1,24.2,0002.0,0028.69,0018.70,0017.78
2023-09-06 10:48:00,SystemResetWarning,0834.2,5.01,000.00,028.5,027.0,000.0,036.9,030.1,24.2,0002.0,0028.68,0018.63,0017.74
2023-09-06 10:49:00,SystemResetWarning,0834.2,5.01,000.00,028.5,027.0,000.0,036.9,030.0,24.2,0001.9,0028.73,0018.61,0017.68
2023-09-06 10:50:00,SystemResetWarning,0834.2,5.00,000.00,028.5,027.1,000.0,036.9,030.0,24.2,0001.9,0028.05,0018.57,0017.64
2023-09-06 10:51:00,SystemResetWarning,0834.2,5.00,000.00,028.5,027.1,000.0,036.9,030.0,24.2,0002.0,0027.87,0018.54,0017.61
2023-09-06 10:52:00,SystemResetWarning,0834.1,5.00,000.00,028.5,027.1,000.0,036.9,030.1,24.2,0002.1,0027.44,0018.57,0017.66
2023-09-06 10:53:00,SystemResetWarning,0834.1,5.00,000.00,028.5,027.1,000.0,036.9,030.1,24.2,0002.2,0027.44,0018.61,0017.73
2023-09-06 10:54:00,SystemResetWarning,0834.1,5.01,000.00,028.6,027.2,000.0,036.9,030.1,24.1,0002.2,0026.94,0018.66,0017.79
2023-09-06 10:55:00,SystemResetWarning,0834.1,5.00,000.00,028.6,027.2,000.0,036.9,030.1,24.1,0002.2,0026.70,0018.69,0017.82
2023-09-06 10:56:00,SystemResetWarning,0834.1,5.00,000.00,028.6,027.2,000.0,036.9,030.1,24.1,0002.1,0026.75,0018.69,0017.83
2023-09-06 10:57:00,SystemResetWarning,0834.1,5.00,000.00,028.6,027.2,000.0,036.9,030.1,24.1,0001.8,0026.03,0018.71,0017.83
2023-09-06 10:58:00,SystemResetWarning,0834.1,5.00,000.00,028.6,027.2,000.0,036.9,030.2,24.1,0001.8,0025.93,0018.76,0017.86
2023-09-06 10:59:00,SystemResetWarning,0834.2,5.00,000.00,028.6,027.2,000.0,036.9,030.1,24.1,0001.8,0026.89,0018.83,0017.90
